Flag for Germany Weather past 2 weeks in Dinslaken, North Rhine-Westphalia, Germany

Now
47 °F

Overcast.


Feels Like: 45 °F
Forecast: 46 / 60 °F
Wind: 5 mph from Southwest

Location: Essen

Current Time: May 30, 2015 at 1:33:29 AM

Latest Report: May 30, 2015 at 1:00 AM


Visibility: 25 mi

Pressure: 29.79 "Hg

Humidity: 97%

Dew point: 46 °F

Location of DinslakenLocation

Historic Weather in Dinslaken — Graph

°F

Dinslaken temperature yesterday

Maximum temperature yesterday: 60 °F (at 5:00 PM)
Minimum temperature yesterday: 47 °F (at 11:00 PM)
Average temperature yesterday: 54 °F

Past Weeks' High & Low Weather Summary

 TemperatureHumidityPressure
High67 °F (May 22, 4:00 PM)100% (May 16, 4:00 PM)30.34 "Hg (May 16, 4:00 PM)
Low42 °F (May 16, 6:00 AM)42% (May 22, 5:00 PM)29.64 "Hg (May 18, 9:00 PM)
Average54 °F71%30.06 "Hg
* Reported Midnight between May 14 and May 15 — Midnight between May 29 and May 30, Dinslaken, Weather by CustomWeather, © 2015

Note: Actual official high and low records may vary slightly from our data, if they occured in-between our weather recording intervals... More about our weather records

Advertising

Dinslaken weather history for previous 24 hours

 ConditionsComfort  
Time TempWeatherWind HumidityBarometerVisibility
12:00 AM
Sat, May 30
46 °FLight rain. Low clouds.5 mph99%29.79 "Hg7 mi
11:00 PM
Fri, May 29
47 °FRain. Low clouds.5 mph97%29.79 "Hg2 mi
10:00 PM54 °FLight rain. Low clouds.5 mph74%29.76 "Hg19 mi
9:00 PM56 °FLight rain. Overcast.6 mph65%29.75 "Hg16 mi
8:00 PM57 °FOvercast.6 mph58%29.75 "Hg31 mi
7:00 PM59 °FOvercast.7 mph53%29.74 "Hg34 mi
6:00 PM60 °FOvercast.6 mph50%29.74 "Hg25 mi
5:00 PM60 °FOvercast.7 mph55%29.75 "Hg22 mi
4:00 PM60 °FOvercast.7 mph56%29.77 "Hg22 mi
3:00 PM58 °FOvercast.8 mph58%29.79 "Hg22 mi
2:00 PM57 °FOvercast.7 mph58%29.80 "Hg22 mi
1:00 PM57 °FOvercast.7 mph58%29.83 "Hg25 mi
12:00 PM57 °FOvercast.6 mph59%29.85 "Hg19 mi
11:00 AM54 °FOvercast.5 mph78%29.87 "Hg13 mi
10:00 AM53 °FOvercast.2 mph81%29.88 "Hg12 mi
9:00 AM51 °FOvercast.3 mph85%29.88 "Hg11 mi
8:00 AM50 °FOvercast.2 mph92%29.89 "Hg7 mi
7:00 AM49 °FFog.1 mph98%29.90 "Hg3 mi
6:00 AM49 °FFog.2 mph98%29.90 "Hg3 mi
5:00 AM50 °FFog.2 mph99%29.91 "Hg2 mi
4:00 AM50 °FFog.2 mph100%29.92 "Hg2 mi
3:00 AM51 °FFog.1 mph97%29.95 "Hg3 mi
2:00 AM50 °FFog.2 mph100%29.96 "Hg3 mi
1:00 AM51 °FOvercast.1 mph100%29.96 "Hg2 mi
Weather by CustomWeather, © 2015

See weather overviewHow to use our weather pages